Change the Weather History Date:

Monday, November 11, 2013

  Actual Average Record
Temperature  
Mean Temperature 37 °F -  
Max Temperature 44 °F 46 °F 66 °F (2012)
Min Temperature 30 °F 31 °F 24 °F (2007)
Degree Days  
Heating Degree Days 28    
Moisture  
Dew Point 31 °F    
Average Humidity 78    
Maximum Humidity 89    
Minimum Humidity 64    
Precipitation  
Precipitation 0.15 in - - ()
Sea Level Pressure  
Sea Level Pressure 30.04 in    
Wind  
Wind Speed 13 mph (West)    
Max Wind Speed 26 mph    
Max Gust Speed 36 mph    
Visibility 7 miles    
Events Rain , Snow    
Averages and records for this station are not official NWS values.
T = Trace of Precipitation, MM = Missing Value Source: NWS Daily Summary

Daily Weather History Graph

Daily Weather History Graph

Search for Another Location

Airport or City:

Trip Planner

Search our weather history database for the weather conditions in past years. The results will help you decide how hot, cold, wet, or windy it might be!

Date:

Astronomy

Nov. 11, 2013 Rise Set
Actual Time 7:03 AM EST 4:55 PM EST
Civil Twilight 6:33 AM EST 5:25 PM EST
Nautical Twilight 5:59 AM EST 6:00 PM EST
Astronomical Twilight 5:25 AM EST 6:33 PM EST
Moon 1:43 PM EST (11/11) 12:37 AM EST (11/11)
Length of Visible Light 10h 52m
Length of Day
9h 51m
Waxing Gibbous, 66% of the Moon is Illuminated
Nov 11
Waxing Gibbous
Nov 17
Full
Nov 25
Last Quarter
Dec 2
New
Dec 9
First Quarter

Hourly Weather History & Observations

Time (EST) Temp. Windchill Dew Point Humidity Pressure Visibility Wind Dir Wind Speed Gust Speed Precip Events Conditions
12:53 AM 35.1 °F 28.6 °F 28.0 °F 76% 30.21 in 10.0 mi West 8.1 mph - N/A   Clear
1:53 AM 36.0 °F 32.1 °F 30.0 °F 79% 30.19 in 10.0 mi WSW 4.6 mph - N/A   Overcast
2:53 AM 33.1 °F 28.7 °F 28.0 °F 82% 30.19 in 10.0 mi WSW 4.6 mph - N/A   Clear
3:53 AM 34.0 °F 26.6 °F 28.9 °F 82% 30.18 in 10.0 mi SW 9.2 mph - N/A   Clear
4:53 AM 36.0 °F 29.0 °F 28.9 °F 76% 30.17 in 10.0 mi WSW 9.2 mph - N/A   Partly Cloudy
5:53 AM 37.0 °F 32.4 °F 28.0 °F 70% 30.14 in 10.0 mi SSW 5.8 mph - N/A   Overcast
6:53 AM 39.0 °F 33.4 °F 30.0 °F 70% 30.12 in 10.0 mi SW 8.1 mph - N/A   Overcast
7:00 AM 37.4 °F 31.4 °F 30.2 °F 75% 30.08 in 10.0 mi SW 8.1 mph - N/A   Mostly Cloudy
7:53 AM 39.9 °F 34.5 °F 32.0 °F 73% 30.10 in 10.0 mi SSW 8.1 mph - N/A   Overcast
8:14 AM 41.0 °F 35.8 °F 33.8 °F 76% 30.07 in 10.0 mi SW 8.1 mph - N/A   Overcast
8:53 AM 44.1 °F 39.5 °F 37.0 °F 76% 30.08 in 10.0 mi SW 8.1 mph - N/A   Overcast
9:19 AM 44.6 °F 38.4 °F 37.4 °F 76% 30.04 in 10.0 mi SW 12.7 mph 20.7 mph N/A   Overcast
9:44 AM 44.6 °F 35.9 °F 35.6 °F 71% 30.01 in 10.0 mi SW 23.0 mph 33.4 mph N/A   Overcast
9:53 AM 44.1 °F 34.6 °F 35.1 °F 71% 30.04 in 10.0 mi SW 26.5 mph 34.5 mph N/A   Overcast
10:16 AM 44.6 °F 35.7 °F 35.6 °F 71% 30.01 in 10.0 mi SW 24.2 mph 35.7 mph N/A   Mostly Cloudy
10:46 AM 44.6 °F 37.2 °F 33.8 °F 66% 30.00 in 10.0 mi SW 17.3 mph 29.9 mph N/A   Overcast
10:53 AM 44.1 °F 35.7 °F 34.0 °F 68% 30.03 in 10.0 mi SW 20.7 mph 33.4 mph N/A   Overcast
11:01 AM 44.6 °F 35.9 °F 33.8 °F 66% 29.99 in 10.0 mi SW 23.0 mph 33.4 mph 0.00 in Rain Light Rain
11:26 AM 42.8 °F 33.5 °F 33.8 °F 70% 29.99 in 9.0 mi SW 23.0 mph 34.5 mph 0.00 in Rain Light Rain
11:53 AM 44.1 °F 36.5 °F 34.0 °F 68% 30.00 in 10.0 mi SW 17.3 mph 29.9 mph 0.00 in Rain Light Rain
12:13 PM 44.6 °F 36.1 °F 35.6 °F 71% 29.96 in 10.0 mi SW 21.9 mph 34.5 mph 0.00 in Rain Light Rain
12:37 PM 42.8 °F 34.3 °F 35.6 °F 76% 29.95 in 5.0 mi WSW 19.6 mph 33.4 mph 0.00 in Rain Light Rain
12:53 PM 42.1 °F 32.6 °F 37.0 °F 82% 29.98 in 5.0 mi WSW 23.0 mph 31.1 mph 0.00 in Rain Light Rain
1:14 PM 42.8 °F 34.5 °F 37.4 °F 81% 29.94 in 4.0 mi WSW 18.4 mph 23.0 mph 0.00 in Rain Light Rain
1:46 PM 42.8 °F 34.8 °F 37.4 °F 81% 29.93 in 6.0 mi WSW 17.3 mph 28.8 mph 0.00 in Rain Light Rain
1:53 PM 42.1 °F 33.6 °F 37.9 °F 85% 29.96 in 7.0 mi WSW 18.4 mph 28.8 mph 0.00 in Rain Light Rain
2:13 PM 42.8 °F 36.2 °F 37.4 °F 81% 29.92 in 6.0 mi WSW 12.7 mph - 0.00 in Rain Light Rain
2:40 PM 42.8 °F 35.1 °F 37.4 °F 81% 29.93 in 5.0 mi West 16.1 mph 27.6 mph 0.00 in Rain Light Rain
2:53 PM 42.1 °F 33.6 °F 37.0 °F 82% 29.96 in 6.0 mi West 18.4 mph 26.5 mph 0.00 in Rain Light Rain
3:06 PM 41.0 °F 31.9 °F 37.4 °F 87% 29.93 in 6.0 mi West 19.6 mph 27.6 mph 0.00 in Rain Light Rain
3:21 PM 41.0 °F 32.2 °F 37.4 °F 87% 29.93 in 4.0 mi West 18.4 mph 25.3 mph 0.00 in Rain Light Rain
3:42 PM 41.0 °F 32.8 °F 37.4 °F 87% 29.94 in 3.0 mi West 16.1 mph 24.2 mph N/A Rain Rain
3:53 PM 41.0 °F 33.1 °F 37.0 °F 86% 29.97 in 3.0 mi WSW 15.0 mph 23.0 mph N/A Rain Light Rain
4:53 PM 39.0 °F 29.6 °F 36.0 °F 89% 29.99 in 6.0 mi West 18.4 mph 26.5 mph 0.00 in Rain Light Rain
5:29 PM 37.4 °F 27.5 °F 33.8 °F 87% 29.97 in 4.0 mi WNW 18.4 mph 29.9 mph N/A Rain , Snow Rain
5:53 PM 35.1 °F 25.5 °F 32.0 °F 89% 30.03 in 7.0 mi NW 15.0 mph 24.2 mph N/A Rain , Snow Light Rain
6:34 PM 33.8 °F 22.5 °F 30.2 °F 87% 30.01 in 2.5 mi NW 19.6 mph 25.3 mph N/A Snow Light Snow
6:45 PM 33.8 °F 22.2 °F 30.2 °F 87% 30.02 in 1.8 mi NW 20.7 mph 31.1 mph N/A Snow Light Snow
6:53 PM 33.1 °F 21.9 °F 30.0 °F 89% 30.06 in 1.8 mi NW 18.4 mph - N/A Snow Light Snow
7:01 PM 33.8 °F 22.5 °F 28.4 °F 81% 30.03 in 1.8 mi NW 19.6 mph 27.6 mph N/A Snow Light Snow
7:06 PM 33.8 °F 23.5 °F 28.4 °F 81% 30.02 in 2.5 mi NW 16.1 mph 24.2 mph N/A Snow Light Snow
7:11 PM 33.8 °F 23.9 °F 28.4 °F 81% 30.03 in 3.0 mi NW 15.0 mph 24.2 mph N/A Snow Light Snow
7:18 PM 33.8 °F 23.9 °F 28.4 °F 81% 30.03 in 5.0 mi NW 15.0 mph 21.9 mph N/A Snow Light Snow
7:46 PM 32.0 °F 20.8 °F 28.4 °F 87% 30.04 in 2.5 mi NW 17.3 mph - N/A Snow Light Snow
7:53 PM 32.0 °F 21.6 °F 28.9 °F 88% 30.09 in 2.5 mi NW 15.0 mph - N/A Snow Light Snow
7:54 PM 32.0 °F 22.1 °F 28.4 °F 87% 30.05 in 1.5 mi NNW 13.8 mph - N/A Snow Light Snow
8:14 PM 32.0 °F 20.5 °F 28.4 °F 87% 30.06 in 2.0 mi NNW 18.4 mph 25.3 mph N/A Snow Light Snow
8:28 PM 30.2 °F 17.1 °F 24.8 °F 80% 30.06 in 3.0 mi NW 21.9 mph 26.5 mph N/A Snow Light Snow
8:53 PM 30.9 °F 21.2 °F 23.0 °F 72% 30.10 in 6.0 mi NNW 12.7 mph 20.7 mph N/A Snow Light Snow
9:04 PM 32.0 °F 19.8 °F 21.2 °F 64% 30.07 in 10.0 mi NW 20.7 mph 27.6 mph N/A Snow Light Snow
9:09 PM 32.0 °F 20.5 °F 21.2 °F 64% 30.07 in 10.0 mi NNW 18.4 mph 31.1 mph N/A   Overcast
9:14 PM 32.0 °F 21.6 °F 21.2 °F 64% 30.07 in 10.0 mi NW 15.0 mph 31.1 mph N/A   Overcast
9:53 PM 32.0 °F 22.5 °F 21.0 °F 64% 30.12 in 10.0 mi NW 12.7 mph - N/A   Overcast
10:53 PM 30.9 °F 22.2 °F 21.0 °F 67% 30.14 in 10.0 mi NNW 10.4 mph - N/A   Overcast
11:53 PM 30.9 °F 23.5 °F 21.9 °F 69% 30.17 in 10.0 mi NNW 8.1 mph - N/A   Partly Cloudy